QPF
0.00 0.00 0.00 0.00 0.00 0.00 0.00 0.00 0.00 0.00 0.00 0.00 0.00 0.00 0.00 0.00 0.00 0.00 0.00 0.00 0.00 0.00 0.00 0.00 0.00 0.00 0.00 0.00 0.00 0.00 0.00 0.00 0.00 0.00 0.00 0.00 0.00 0.00 0.00 0.00 0.00 0.00 0.00 0.00 0.00
0.00 0.00 0.00 0.00 0.00 0.00 0.00 0.00 0.00 0.00 0.00 0.00 0.00 0.00 0.00 0.00 0.00 0.00 0.00 0.00 0.00 0.00 0.00 0.00 0.00 0.00 0.00 0.00 0.00 0.00 0.00 0.00 0.00 0.00 0.00 0.00 0.00 0.01 0.00 0.00 0.00 0.00 0.00 0.00 0.00
0.00 0.00 0.00 0.00 0.00 0.00 0.00 0.00 0.00 0.00 0.00 0.00 0.00 0.00 0.00 0.00 0.00 0.00 0.00 0.00 0.00 0.00 0.00 0.00 0.00 0.00 0.00 0.00 0.00 0.00 0.00 0.00 0.00 0.00 0.01 0.01 0.02 0.00 0.00 0.00 0.00 0.00 0.00 0.00 0.00
0.00 0.00 0.00 0.00 0.00 0.00 0.00 0.00 0.00 0.00 0.00 0.00 0.00 0.00 0.00 0.00 0.00 0.00 0.00 0.00 0.00 0.00 0.00 0.00 0.00 0.00 0.00 0.00 0.00 0.00 0.00 0.00 0.00 0.00 0.00 0.00 0.00 0.01 0.00 0.00 0.00 0.00 0.00 0.00 0.00
0.00 0.00 0.00 0.00 0.00 0.00 0.00 0.00 0.00 0.00 0.00 0.00 0.00 0.00 0.00 0.00 0.00 0.00 0.00 0.00 0.00 0.00 0.00 0.00 0.00 0.00 0.00 0.00 0.00 0.00 0.00 0.00 0.00 0.00 0.00 0.00 0.00 0.00 0.00 0.00 0.00 0.00 0.00 0.00 0.00
0.00 0.00 0.00 0.00 0.00 0.00 0.00 0.00 0.00 0.00 0.00 0.00 0.00 0.00 0.00 0.00 0.00 0.00 0.00 0.00 0.00 0.00 0.00 0.00 0.00 0.00 0.00 0.00 0.00 0.00 0.00 0.00 0.00 0.00 0.00 0.00 0.00 0.00 0.00 0.00 0.00 0.00 0.00 0.00 0.00
0.00 0.00 0.00 0.00 0.00 0.00 0.00 0.00 0.00 0.00 0.00 0.00 0.00 0.00 0.00 0.00 0.00 0.00 0.00 0.00 0.00 0.00 0.00 0.00 0.00 0.00 0.00 0.00 0.00 0.00 0.00 0.00 0.00 0.00 0.00 0.00 0.00 0.00 0.00 0.00 0.00 0.00 0.00 0.00 0.00
0.00 0.00 0.00 0.00 0.00 0.00 0.00 0.00 0.00 0.00 0.00 0.00 0.00 0.00 0.00 0.00 0.00 0.00 0.00 0.00 0.00 0.00 0.00 0.00 0.00 0.00 0.00 0.00 0.00 0.00 0.00 0.00 0.00 0.00 0.00 0.00 0.00 0.00 0.00 0.00 0.00 0.00 0.00 0.00 0.00
0.00 0.00 0.00 0.00 0.00 0.00 0.00 0.00 0.00 0.00 0.00 0.00 0.00 0.00 0.00 0.00 0.00 0.00 0.00 0.00 0.00 0.00 0.00 0.00 0.00 0.00 0.00 0.00 0.00 0.00 0.00 0.00 0.00 0.00 0.00 0.00 0.00 0.00 0.00 0.00 0.00 0.00 0.00 0.00 0.00
0.00 0.00 0.00 0.00 0.00 0.00 0.00 0.00 0.00 0.00 0.00 0.00 0.00 0.00 0.00 0.00 0.00 0.00 0.00 0.00 0.00 0.00 0.00 0.00 0.00 0.00 0.00 0.00 0.00 0.00 0.00 0.00 0.00 0.00 0.00 0.00 0.00 0.00 0.00 0.00 0.00 0.00 0.03 0.06 0.00
0.00 0.00 0.00 0.00 0.00 0.00 0.00 0.00 0.00 0.00 0.00 0.00 0.00 0.00 0.00 0.00 0.00 0.00 0.00 0.00 0.00 0.00 0.00 0.00 0.00 0.00 0.00 0.00 0.00 0.00 0.00 0.00 0.00 0.00 0.00 0.00 0.00 0.00 0.00 0.00 0.02 0.01 0.01 0.05 0.00
0.00 0.00 0.00 0.00 0.00 0.00 0.00 0.00 0.00 0.00 0.00 0.00 0.00 0.00 0.00 0.00 0.00 0.00 0.00 0.00 0.00 0.00 0.00 0.00 0.00 0.00 0.00 0.00 0.00 0.00 0.00 0.00 0.00 0.00 0.00 0.00 0.00 0.00 0.00 0.00 0.00 0.00 0.00 0.00 0.00
0.00 0.00 0.00 0.00 0.00 0.00 0.00 0.00 0.00 0.00 0.00 0.00 0.00 0.00 0.00 0.00 0.00 0.00 0.00 0.00 0.00 0.00 0.00 0.00 0.00 0.00 0.00 0.00 0.00 0.00 0.00 0.00 0.00 0.00 0.00 0.00 0.00 0.00 0.00 0.00 0.00 0.00 0.00 0.00 0.00
0.00 0.00 0.00 0.00 0.00 0.00 0.00 0.00 0.00 0.00 0.00 0.00 0.00 0.00 0.00 0.00 0.00 0.00 0.00 0.00 0.00 0.00 0.00 0.00 0.00 0.00 0.00 0.00 0.00 0.00 0.00 0.00 0.00 0.00 0.00 0.00 0.00 0.00 0.00 0.00 0.00 0.00 0.00 0.00 0.00
0.00 0.00 0.00 0.00 0.00 0.00 0.00 0.00 0.00 0.00 0.00 0.00 0.00 0.00 0.00 0.00 0.00 0.00 0.00 0.00 0.00 0.00 0.00 0.00 0.00 0.00 0.00 0.00 0.00 0.00 0.00 0.00 0.00 0.00 0.00 0.00 0.00 0.00 0.00 0.00 0.00 0.00 0.00 0.00 0.01
0.00 0.00 0.00 0.00 0.00 0.00 0.00 0.00 0.00 0.00 0.00 0.00 0.00 0.00 0.00 0.00 0.00 0.00 0.00 0.00 0.00 0.00 0.00 0.00 0.00 0.00 0.00 0.00 0.00 0.00 0.00 0.00 0.00 0.00 0.00 0.00 0.00 0.00 0.00 0.00 0.00 0.00 0.00 0.00 0.00
0.00 0.00 0.00 0.00 0.00 0.00 0.00 0.00 0.00 0.00 0.00 0.00 0.00 0.00 0.00 0.00 0.00 0.00 0.00 0.00 0.00 0.00 0.00 0.00 0.00 0.00 0.00 0.00 0.00 0.00 0.00 0.00 0.00 0.00 0.00 0.00 0.00 0.00 0.00 0.00 0.00 0.00 0.00 0.00 0.00
0.00 0.00 0.00 0.00 0.00 0.00 0.00 0.00 0.00 0.00 0.00 0.00 0.00 0.00 0.00 0.00 0.00 0.00 0.00 0.00 0.00 0.00 0.00 0.00 0.00 0.00 0.00 0.00 0.00 0.00 0.00 0.00 0.00 0.00 0.00 0.00 0.00 0.00 0.00 0.00 0.00 0.00 0.00 0.00 0.00
0.00 0.00 0.00 0.00 0.00 0.00 0.00 0.00 0.00 0.00 0.00 0.00 0.00 0.00 0.00 0.00 0.00 0.00 0.00 0.00 0.00 0.00 0.00 0.00 0.00 0.00 0.00 0.00 0.00 0.00 0.00 0.00 0.00 0.00 0.00 0.00 0.00 0.00 0.00 0.00 0.00 0.00 0.00 0.01 0.01
0.00 0.00 0.00 0.00 0.00 0.00 0.00 0.00 0.00 0.00 0.00 0.00 0.00 0.00 0.00 0.00 0.00 0.00 0.00 0.00 0.00 0.00 0.00 0.00 0.00 0.00 0.00 0.00 0.00 0.00 0.00 0.00 0.00 0.00 0.00 0.00 0.00 0.00 0.00 0.00 0.00 0.00 0.02 0.18 0.26
0.00 0.00 0.00 0.00 0.00 0.00 0.00 0.00 0.00 0.00 0.00 0.00 0.00 0.00 0.00 0.00 0.00 0.00 0.00 0.00 0.00 0.00 0.00 0.00 0.00 0.00 0.00 0.00 0.00 0.00 0.00 0.00 0.00 0.00 0.00 0.00 0.00 0.00 0.00 0.00 0.00 0.00 0.06 0.44 0.85
0.00 0.00 0.00 0.00 0.00 0.00 0.00 0.00 0.00 0.00 0.00 0.00 0.00 0.00 0.00 0.00 0.00 0.00 0.00 0.00 0.00 0.00 0.00 0.00 0.00 0.00 0.00 0.00 0.00 0.00 0.00 0.00 0.00 0.00 0.00 0.00 0.00 0.00 0.00 0.00 0.00 0.04 0.38 0.40 0.47
0.00 0.00 0.00 0.00 0.00 0.00 0.00 0.00 0.00 0.00 0.00 0.00 0.00 0.00 0.00 0.00 0.00 0.00 0.00 0.00 0.00 0.00 0.00 0.00 0.00 0.00 0.00 0.00 0.00 0.00 0.00 0.00 0.00 0.00 0.00 0.00 0.00 0.00 0.00 0.00 0.00 0.03 0.10 0.12 0.08
0.00 0.00 0.00 0.00 0.00 0.00 0.00 0.00 0.00 0.00 0.00 0.00 0.00 0.00 0.00 0.00 0.00 0.00 0.00 0.00 0.00 0.00 0.00 0.00 0.00 0.00 0.00 0.00 0.00 0.00 0.00 0.00 0.00 0.00 0.00 0.00 0.00 0.00 0.00 0.00 0.01 0.02 0.04 0.08 0.09
0.00 0.00 0.00 0.00 0.00 0.00 0.00 0.00 0.00 0.00 0.00 0.00 0.00 0.00 0.00 0.00 0.00 0.00 0.00 0.00 0.00 0.00 0.00 0.00 0.00 0.00 0.00 0.00 0.00 0.00 0.00 0.00 0.00 0.00 0.00 0.00 0.00 0.00 0.00 0.01 0.18 0.09 0.05 0.08 0.10
0.00 0.00 0.00 0.00 0.00 0.00 0.00 0.00 0.00 0.00 0.00 0.00 0.00 0.00 0.00 0.00 0.00 0.00 0.00 0.00 0.00 0.00 0.00 0.00 0.00 0.00 0.00 0.00 0.00 0.00 0.00 0.00 0.00 0.00 0.00 0.00 0.00 0.00 0.00 0.00 0.00 0.00 0.01 0.03 0.06
0.00 0.00 0.00 0.00 0.00 0.00 0.00 0.00 0.00 0.00 0.00 0.00 0.00 0.00 0.00 0.00 0.00 0.00 0.00 0.00 0.00 0.00 0.00 0.00 0.00 0.00 0.00 0.00 0.00 0.00 0.00 0.00 0.00 0.00 0.00 0.00 0.00 0.00 0.00 0.00 0.00 0.00 0.00 0.00 0.00
MSLP
1019.06 1018.63 1018.27 1017.78 1017.28 1016.75 1016.20 1015.58 1015.07 1014.57 1014.17 1013.93 1013.57 1013.12 1012.44 1011.65 1010.54 1010.09 1008.97 1007.14 1007.19 1007.62 1008.17 1008.77 1009.10 1008.72 1008.82 1008.39 1008.11 1008.59 1009.48 1009.96 1009.39 1008.93 1008.80 1007.82 1008.00 1008.13 1008.12 1008.76 1009.29 1009.50 1010.06 1010.79 1011.62
1019.09 1018.56 1018.15 1017.61 1017.06 1016.54 1016.11 1015.52 1014.98 1014.55 1014.07 1013.73 1013.51 1013.03 1012.46 1011.82 1010.85 1009.13 1006.62 1006.72 1007.00 1007.41 1007.78 1007.97 1008.09 1007.89 1007.99 1007.46 1007.75 1008.38 1009.14 1008.90 1007.51 1008.45 1008.93 1008.78 1008.59 1008.69 1008.81 1009.49 1009.56 1009.83 1010.45 1010.90 1011.69
1019.23 1018.74 1018.18 1017.68 1017.13 1016.60 1016.06 1015.49 1014.84 1014.31 1014.03 1013.63 1013.36 1012.83 1012.34 1011.97 1010.64 1007.41 1005.73 1006.36 1006.98 1007.21 1007.36 1007.66 1007.38 1007.47 1007.04 1006.96 1007.24 1007.54 1007.61 1007.43 1007.35 1008.29 1007.98 1009.07 1008.58 1008.95 1009.20 1009.59 1009.60 1009.77 1010.17 1010.68 1011.61
1019.45 1019.03 1018.39 1017.78 1017.23 1016.70 1016.10 1015.44 1014.71 1014.21 1013.91 1013.56 1013.14 1012.61 1012.17 1011.77 1009.53 1006.27 1006.11 1006.60 1006.93 1007.19 1007.29 1007.36 1007.21 1007.10 1007.04 1006.82 1006.26 1006.63 1005.57 1006.03 1006.75 1007.70 1007.93 1008.12 1007.64 1007.29 1007.82 1008.68 1009.43 1009.85 1010.20 1010.62 1011.28
1019.60 1018.99 1018.46 1017.87 1017.35 1016.77 1016.04 1015.39 1014.80 1014.19 1013.74 1013.41 1012.92 1012.52 1011.95 1010.83 1008.03 1005.66 1006.17 1006.64 1007.04 1007.20 1007.05 1007.05 1007.05 1006.86 1006.83 1006.40 1006.03 1005.99 1005.13 1004.79 1005.61 1006.35 1007.00 1007.31 1007.23 1007.09 1006.98 1007.36 1008.81 1009.62 1010.14 1010.58 1011.09
1019.55 1018.97 1018.54 1017.88 1017.21 1016.65 1015.88 1015.09 1014.57 1014.09 1013.51 1013.17 1012.72 1012.54 1011.82 1009.74 1005.92 1005.41 1006.09 1006.73 1006.85 1007.03 1006.73 1006.77 1006.51 1006.21 1006.45 1006.37 1006.17 1005.89 1005.13 1004.74 1004.66 1006.11 1006.84 1007.17 1007.16 1006.95 1007.60 1007.88 1008.55 1008.91 1009.56 1010.16 1010.43
1019.44 1018.84 1018.35 1017.88 1017.19 1016.47 1015.65 1014.77 1014.15 1013.42 1012.98 1012.77 1012.42 1012.14 1011.14 1007.80 1005.75 1005.70 1006.11 1005.91 1005.89 1006.24 1006.32 1006.08 1006.02 1006.37 1005.99 1006.05 1005.91 1005.93 1005.60 1005.04 1005.12 1006.46 1007.19 1007.39 1007.79 1007.58 1007.39 1008.28 1008.32 1008.65 1009.43 1009.91 1010.40
1019.41 1018.79 1018.13 1017.46 1016.81 1016.05 1015.12 1014.31 1013.20 1012.43 1012.20 1012.01 1012.04 1011.69 1009.70 1006.05 1005.93 1005.86 1005.79 1005.75 1005.20 1005.69 1005.80 1005.28 1005.17 1005.69 1005.82 1005.90 1006.06 1005.93 1005.86 1006.65 1006.50 1006.69 1007.06 1007.00 1007.57 1007.63 1007.99 1008.11 1008.65 1009.07 1009.15 1009.93 1010.15
1019.22 1018.69 1017.95 1017.12 1016.36 1015.51 1014.51 1013.31 1011.93 1011.40 1011.69 1011.74 1011.83 1010.99 1008.58 1005.75 1005.43 1004.70 1005.25 1005.60 1005.07 1005.07 1004.97 1004.76 1005.11 1005.71 1006.02 1006.80 1007.45 1007.22 1006.96 1006.20 1005.49 1005.58 1005.83 1006.81 1006.54 1006.75 1007.89 1008.09 1010.15 1009.94 1009.69 1009.70 1009.88
1019.18 1018.48 1017.82 1016.98 1016.26 1015.49 1014.31 1012.17 1010.92 1011.26 1011.43 1011.34 1010.83 1010.48 1007.61 1005.86 1004.88 1004.32 1004.35 1004.64 1005.08 1005.29 1005.14 1005.33 1005.97 1006.39 1007.11 1007.75 1008.20 1007.79 1007.13 1006.06 1005.50 1004.44 1005.00 1006.13 1006.41 1006.50 1007.09 1007.83 1009.50 1009.82 1009.21 1009.04 1009.37
1019.23 1018.52 1017.70 1016.87 1015.94 1015.49 1014.43 1012.30 1011.39 1011.12 1010.62 1010.09 1009.60 1008.60 1006.65 1005.50 1004.75 1004.23 1004.09 1004.47 1004.93 1005.34 1006.00 1006.01 1006.86 1007.33 1007.13 1007.20 1007.22 1007.18 1006.73 1005.63 1004.55 1004.33 1004.46 1004.95 1005.39 1006.21 1006.63 1007.71 1008.53 1008.89 1007.91 1007.62 1008.96
1019.31 1018.55 1017.66 1016.57 1015.66 1015.30 1015.25 1013.90 1011.54 1011.08 1010.20 1008.95 1008.05 1007.50 1006.16 1006.02 1005.83 1004.43 1003.81 1004.73 1005.19 1005.81 1006.13 1006.84 1006.89 1006.42 1006.48 1006.36 1006.78 1006.75 1006.48 1005.51 1004.44 1004.01 1004.71 1004.81 1005.08 1005.57 1005.94 1006.36 1006.84 1007.35 1007.57 1007.87 1008.66
1019.12 1018.46 1017.54 1016.32 1015.23 1014.83 1014.42 1012.69 1010.62 1010.77 1010.49 1008.03 1006.86 1006.11 1005.05 1005.27 1004.99 1004.28 1004.17 1004.59 1005.41 1006.12 1006.47 1006.94 1005.71 1005.60 1006.07 1005.73 1006.03 1006.15 1006.05 1005.52 1004.88 1004.43 1004.49 1005.25 1006.14 1005.99 1006.04 1006.11 1006.56 1006.65 1007.10 1007.67 1008.11
1018.97 1018.38 1017.67 1016.34 1015.09 1015.12 1013.32 1011.35 1011.05 1010.68 1010.85 1007.82 1005.96 1004.09 1003.96 1004.16 1004.07 1003.56 1003.57 1004.57 1005.34 1005.81 1006.22 1006.48 1005.20 1005.45 1005.18 1005.18 1004.84 1005.48 1005.13 1005.05 1005.16 1005.95 1005.92 1006.10 1007.62 1007.00 1006.81 1006.55 1006.60 1006.51 1006.95 1007.61 1007.95
1018.81 1018.27 1017.75 1017.43 1016.77 1015.22 1012.29 1011.39 1010.70 1010.49 1010.12 1005.86 1004.11 1002.21 1002.44 1003.64 1003.23 1002.63 1002.71 1003.93 1004.85 1005.37 1006.10 1005.55 1005.09 1004.81 1004.75 1004.41 1004.16 1004.29 1004.57 1005.33 1006.00 1006.39 1007.15 1007.08 1008.15 1007.29 1006.95 1007.14 1006.30 1005.77 1006.45 1007.09 1007.17
1018.50 1018.17 1017.85 1017.13 1016.97 1013.99 1012.71 1011.73 1010.94 1011.46 1008.97 1005.60 1003.35 1002.92 1003.31 1003.47 1003.29 1002.87 1003.11 1003.62 1004.09 1005.01 1005.31 1005.32 1004.26 1004.25 1003.62 1003.18 1003.15 1003.39 1004.12 1005.27 1006.40 1007.70 1008.65 1007.79 1007.94 1007.45 1007.01 1005.58 1005.65 1005.98 1006.08 1006.21 1006.53
1017.99 1017.59 1017.83 1017.13 1014.77 1013.10 1012.84 1012.56 1012.59 1011.47 1008.10 1005.69 1004.08 1003.59 1003.33 1003.57 1003.54 1003.50 1003.65 1004.14 1004.81 1005.48 1006.02 1005.41 1004.47 1003.75 1003.28 1003.15 1003.13 1003.89 1005.92 1007.31 1008.52 1009.10 1009.09 1007.90 1007.57 1006.45 1005.31 1004.89 1004.31 1005.15 1005.21 1005.23 1005.88
1017.38 1016.51 1015.54 1014.80 1013.67 1013.82 1013.67 1013.67 1012.63 1010.19 1007.88 1005.86 1004.90 1004.35 1004.61 1004.30 1003.83 1003.67 1004.14 1004.65 1004.69 1005.23 1006.15 1006.05 1005.05 1003.65 1002.83 1002.96 1003.57 1004.35 1006.11 1007.95 1009.22 1010.31 1009.52 1008.31 1007.56 1006.35 1005.76 1004.52 1004.00 1004.16 1004.28 1005.47 1006.35
1016.87 1015.52 1014.88 1012.48 1013.13 1014.13 1014.33 1013.96 1011.78 1009.75 1007.59 1006.62 1005.55 1005.07 1004.89 1004.18 1003.95 1004.04 1004.19 1004.51 1004.33 1004.73 1005.68 1005.86 1004.96 1003.63 1003.01 1002.89 1003.55 1004.15 1005.52 1006.52 1008.45 1009.98 1010.21 1009.08 1007.75 1006.84 1005.91 1005.49 1005.06 1005.24 1006.58 1006.69 1007.02
1017.15 1016.06 1013.51 1011.09 1012.33 1013.43 1013.98 1013.33 1011.23 1008.77 1007.59 1006.84 1006.43 1005.62 1005.66 1005.23 1004.85 1004.58 1004.37 1003.62 1003.67 1003.77 1003.95 1005.06 1005.29 1003.63 1002.84 1002.81 1002.63 1003.21 1004.52 1006.72 1008.69 1009.87 1010.54 1010.00 1008.92 1008.07 1007.33 1007.02 1007.31 1007.63 1008.61 1010.37 1010.92
1017.03 1015.39 1011.07 1010.76 1011.89 1013.26 1013.64 1012.50 1010.46 1008.24 1007.81 1007.09 1006.35 1006.03 1005.77 1005.87 1005.65 1005.04 1004.51 1003.57 1002.91 1003.04 1003.72 1004.57 1005.37 1003.95 1003.69 1003.30 1003.18 1003.56 1004.56 1006.41 1008.06 1009.21 1010.41 1010.89 1010.29 1009.64 1008.94 1008.09 1008.45 1009.26 1010.07 1009.61 1014.27
1016.88 1014.87 1010.79 1010.51 1012.45 1013.08 1012.94 1011.25 1009.87 1008.34 1007.62 1007.17 1006.03 1005.83 1005.73 1005.68 1005.51 1005.02 1004.55 1003.93 1003.28 1002.50 1003.61 1004.07 1005.09 1005.21 1004.29 1003.36 1002.95 1003.48 1004.33 1005.70 1007.99 1008.94 1010.16 1010.39 1010.65 1009.90 1009.88 1009.63 1008.60 1008.13 1008.59 1008.57 1009.52
1017.43 1014.73 1010.93 1010.85 1012.26 1012.85 1011.84 1010.51 1009.41 1008.43 1007.45 1006.97 1006.03 1006.00 1005.73 1005.73 1005.89 1005.21 1004.52 1003.93 1003.65 1003.06 1003.56 1004.16 1005.33 1005.64 1005.01 1004.05 1003.13 1003.54 1004.40 1005.39 1006.28 1007.72 1009.27 1010.50 1010.95 1010.75 1010.42 1010.16 1009.39 1008.33 1007.81 1008.01 1009.60
1017.78 1015.63 1012.77 1012.07 1011.98 1012.02 1011.66 1010.35 1008.97 1007.34 1006.85 1006.47 1006.03 1005.95 1006.27 1006.09 1006.05 1005.97 1005.23 1004.64 1004.47 1004.17 1003.71 1004.24 1005.79 1005.89 1005.74 1005.10 1004.53 1004.00 1003.87 1004.53 1005.52 1007.38 1008.30 1009.53 1010.34 1011.43 1010.32 1009.86 1009.05 1008.01 1008.28 1007.87 1008.06
1017.87 1015.66 1013.33 1012.77 1012.19 1011.77 1011.29 1010.11 1008.72 1007.29 1006.24 1005.80 1006.05 1006.25 1006.75 1006.97 1006.90 1006.79 1006.13 1005.54 1005.14 1004.81 1004.94 1005.39 1006.41 1006.08 1005.49 1005.09 1004.29 1004.33 1004.17 1004.03 1004.87 1005.79 1007.01 1008.65 1009.53 1009.94 1009.83 1008.48 1007.59 1007.20 1006.78 1007.87 1008.56
1017.39 1015.39 1013.71 1013.01 1011.97 1011.01 1010.69 1009.55 1008.28 1007.60 1006.73 1006.39 1006.39 1006.43 1006.68 1007.19 1007.60 1007.72 1007.23 1006.64 1006.54 1006.06 1006.32 1006.41 1007.03 1006.73 1006.15 1005.11 1004.75 1004.49 1004.08 1003.88 1004.16 1005.12 1006.20 1007.32 1008.64 1008.46 1009.39 1009.46 1008.60 1007.40 1007.47 1007.91 1007.78
1016.28 1014.97 1014.63 1013.14 1012.02 1011.06 1010.04 1008.85 1007.70 1007.56 1007.07 1006.89 1007.03 1006.92 1007.23 1007.24 1007.11 1007.18 1006.97 1006.69 1006.92 1007.04 1007.18 1007.43 1007.73 1008.19 1007.53 1006.27 1005.48 1005.13 1004.37 1004.32 1004.51 1004.72 1006.09 1007.17 1007.10 1008.31 1009.23 1008.95 1008.38 1008.17 1008.15 1008.01 1008.09
Thickness
5761 5768 5772 5777 5782 5788 5794 5800 5806 5811 5815 5818 5822 5826 5833 5841 5851 5855 5852 5874 5876 5876 5871 5864 5858 5858 5861 5853 5863 5856 5807 5792 5805 5810 5813 5839 5831 5847 5850 5833 5831 5829 5822 5821 5817
5756 5764 5770 5776 5781 5787 5792 5798 5804 5809 5814 5818 5820 5825 5832 5839 5847 5851 5881 5881 5880 5877 5869 5859 5851 5859 5850 5858 5853 5831 5799 5811 5839 5828 5816 5826 5832 5835 5832 5818 5820 5824 5828 5825 5817
5751 5758 5766 5772 5778 5783 5788 5795 5802 5808 5812 5816 5819 5825 5830 5837 5842 5858 5888 5884 5879 5879 5874 5867 5864 5858 5853 5862 5850 5836 5818 5838 5843 5832 5844 5826 5828 5839 5826 5814 5820 5816 5822 5824 5818
5743 5750 5759 5766 5773 5778 5784 5791 5799 5805 5808 5813 5818 5824 5830 5835 5814 5876 5884 5880 5879 5877 5871 5862 5856 5845 5842 5841 5860 5836 5862 5858 5851 5846 5838 5832 5848 5847 5843 5832 5839 5831 5831 5828 5820
5736 5745 5752 5760 5767 5774 5781 5788 5794 5801 5806 5810 5816 5821 5829 5825 5838 5885 5882 5879 5875 5871 5863 5856 5847 5844 5832 5849 5854 5845 5863 5872 5865 5858 5850 5850 5845 5851 5853 5856 5849 5838 5834 5827 5822
5731 5739 5746 5755 5763 5770 5778 5786 5792 5797 5803 5808 5814 5817 5822 5809 5879 5883 5880 5873 5870 5865 5862 5859 5851 5857 5840 5846 5843 5853 5862 5864 5869 5853 5851 5843 5847 5853 5850 5856 5846 5844 5837 5834 5830
5726 5734 5741 5749 5758 5766 5775 5784 5791 5797 5803 5806 5812 5817 5814 5826 5877 5877 5876 5875 5877 5869 5858 5866 5867 5851 5855 5844 5859 5851 5840 5851 5851 5843 5839 5849 5830 5834 5855 5850 5849 5847 5841 5837 5831
5720 5728 5737 5746 5755 5764 5775 5783 5794 5801 5804 5808 5810 5814 5806 5866 5871 5868 5873 5871 5881 5876 5869 5875 5877 5861 5856 5861 5845 5837 5831 5804 5835 5841 5845 5846 5809 5837 5844 5847 5843 5844 5844 5835 5831
5715 5723 5733 5743 5753 5763 5774 5786 5799 5804 5804 5805 5807 5809 5805 5865 5855 5874 5873 5857 5870 5874 5874 5879 5869 5850 5851 5822 5800 5813 5797 5817 5835 5857 5852 5838 5832 5850 5845 5845 5825 5828 5833 5837 5834
5709 5718 5727 5738 5747 5757 5770 5790 5801 5800 5801 5803 5808 5796 5825 5831 5855 5867 5875 5870 5857 5856 5852 5850 5832 5819 5814 5799 5768 5791 5801 5816 5820 5856 5852 5831 5833 5853 5854 5846 5825 5826 5838 5841 5836
5700 5710 5721 5732 5743 5751 5763 5781 5783 5783 5795 5790 5796 5802 5823 5846 5862 5857 5867 5858 5852 5842 5815 5828 5806 5790 5808 5817 5822 5817 5815 5825 5839 5854 5846 5840 5840 5843 5851 5843 5832 5832 5849 5851 5837
5691 5702 5713 5727 5739 5746 5748 5759 5773 5779 5767 5799 5807 5813 5830 5835 5817 5842 5865 5832 5826 5805 5818 5804 5789 5818 5827 5830 5822 5817 5812 5817 5841 5856 5845 5840 5839 5849 5849 5847 5844 5844 5845 5843 5835
5683 5694 5706 5721 5734 5742 5746 5758 5782 5782 5757 5788 5808 5811 5823 5828 5817 5827 5844 5830 5814 5801 5803 5787 5813 5832 5824 5822 5816 5814 5806 5816 5826 5849 5853 5839 5815 5829 5843 5849 5847 5853 5850 5845 5841
5675 5685 5697 5713 5729 5730 5743 5768 5774 5780 5722 5767 5792 5818 5830 5829 5814 5846 5850 5830 5813 5798 5801 5798 5827 5819 5819 5815 5826 5794 5833 5836 5833 5816 5791 5831 5768 5811 5820 5829 5839 5844 5844 5842 5838
5668 5678 5687 5696 5703 5719 5750 5762 5771 5766 5691 5793 5803 5848 5837 5811 5829 5834 5856 5832 5804 5806 5798 5796 5813 5812 5808 5818 5832 5818 5835 5829 5825 5811 5796 5807 5777 5793 5818 5811 5825 5844 5844 5843 5843
5662 5670 5678 5688 5694 5723 5740 5752 5756 5706 5692 5771 5811 5805 5805 5811 5817 5831 5829 5836 5830 5806 5809 5806 5834 5826 5824 5839 5844 5851 5839 5818 5809 5787 5761 5794 5786 5786 5795 5827 5830 5836 5845 5849 5844
5658 5667 5670 5680 5699 5722 5730 5731 5692 5678 5757 5769 5785 5796 5795 5793 5802 5807 5804 5797 5781 5773 5770 5795 5808 5826 5838 5825 5833 5826 5788 5749 5756 5747 5752 5798 5792 5799 5827 5840 5845 5837 5845 5851 5849
5656 5668 5682 5690 5705 5708 5712 5696 5678 5715 5739 5778 5780 5780 5774 5785 5791 5799 5790 5778 5796 5789 5767 5761 5757 5814 5838 5826 5813 5815 5788 5744 5740 5735 5757 5793 5779 5803 5825 5841 5858 5857 5860 5853 5844
5653 5668 5677 5701 5701 5698 5688 5663 5682 5714 5755 5757 5763 5763 5766 5782 5788 5787 5778 5778 5796 5795 5765 5753 5767 5822 5831 5837 5823 5807 5789 5803 5765 5765 5748 5765 5796 5815 5827 5829 5837 5842 5830 5832 5833
5644 5653 5677 5703 5699 5692 5673 5667 5693 5737 5751 5751 5736 5758 5746 5759 5763 5769 5774 5797 5800 5809 5810 5788 5762 5808 5827 5834 5833 5819 5824 5783 5756 5751 5739 5753 5776 5776 5811 5818 5814 5808 5806 5792 5775
5639 5655 5691 5700 5696 5674 5658 5672 5706 5739 5743 5739 5741 5746 5754 5751 5757 5761 5773 5795 5809 5813 5806 5795 5775 5797 5815 5803 5798 5806 5797 5788 5776 5754 5736 5728 5752 5784 5788 5806 5805 5796 5794 5798 5749
5634 5645 5690 5696 5660 5657 5662 5688 5712 5724 5736 5731 5747 5751 5751 5755 5755 5764 5770 5785 5802 5809 5790 5799 5774 5761 5780 5818 5831 5817 5801 5786 5751 5760 5751 5748 5753 5784 5789 5795 5808 5813 5807 5804 5785
5624 5643 5685 5686 5647 5651 5670 5691 5703 5710 5720 5722 5735 5741 5756 5753 5746 5764 5773 5793 5800 5801 5797 5797 5761 5746 5763 5789 5812 5805 5804 5798 5781 5763 5753 5742 5745 5779 5779 5790 5803 5810 5816 5816 5794
5618 5627 5654 5662 5661 5666 5670 5677 5693 5721 5719 5726 5729 5742 5736 5739 5751 5751 5762 5782 5789 5793 5799 5792 5758 5756 5737 5767 5783 5789 5803 5801 5780 5756 5762 5752 5754 5761 5772 5785 5797 5810 5808 5814 5809
5608 5625 5649 5640 5652 5660 5671 5677 5686 5699 5723 5728 5718 5731 5728 5725 5727 5738 5752 5762 5777 5782 5783 5776 5757 5776 5777 5783 5795 5791 5793 5800 5786 5781 5773 5756 5762 5770 5778 5789 5797 5811 5816 5805 5796
5614 5625 5637 5641 5656 5663 5657 5676 5693 5697 5707 5709 5711 5726 5724 5719 5721 5722 5737 5748 5750 5766 5763 5765 5749 5764 5767 5782 5783 5782 5789 5799 5798 5795 5776 5768 5765 5784 5781 5783 5795 5806 5802 5797 5803
5620 5631 5628 5639 5651 5659 5666 5682 5695 5698 5707 5709 5708 5711 5708 5718 5733 5740 5746 5749 5753 5755 5752 5751 5744 5732 5738 5763 5765 5750 5786 5790 5792 5798 5779 5758 5776 5778 5771 5778 5787 5790 5795 5797 5802